Theta_e
324 324 323 322 323 322 323 325 326 326 325 325 326 325 325 325 325 323 323 322 321 321
323 323 322 322 323 323 323 325 325 325 324 326 326 327 327 326 326 324 323 324 323 322
323 323 322 323 322 323 323 324 324 325 326 327 327 327 327 326 327 324 323 323 323 322
322 322 322 322 323 323 322 324 324 326 327 326 326 326 326 325 326 324 321 322 323 323
322 322 321 322 323 322 323 325 325 327 327 327 326 324 325 324 325 321 321 320 322 322
321 320 321 322 322 322 323 324 325 326 326 326 325 325 326 325 325 322 322 321 321 323
320 321 321 322 321 321 323 323 323 326 326 325 324 323 323 327 326 323 322 322 322 323
321 321 321 321 321 322 323 324 326 325 324 322 321 317 320 325 325 323 322 322 323 324
323 322 321 321 323 324 326 326 325 323 322 320 318 301 309 318 323 324 323 322 322 322
324 323 322 322 323 324 325 326 322 320 320 318 316 301 303 310 325 324 322 321 319 318
324 322 322 321 323 323 324 323 320 319 318 317 313 302 302 310 324 323 322 321 320 319
323 322 321 320 319 321 321 320 318 318 317 318 315 300 302 316 324 322 321 322 321 319
323 322 321 320 319 321 321 320 319 317 317 312 317 299 302 316 323 320 319 318 316 306
323 322 322 321 321 321 321 321 319 317 316 318 317 311 301 308 323 321 319 317 315 311
Wind_Speed
8 6 5 5 6 4 3 4 5 4 4 4 4 4 3 2 3 5 5 6 5 4
7 8 8 7 5 4 4 4 5 5 4 4 4 4 5 4 5 4 4 5 5 5
8 8 7 6 6 6 5 5 5 4 4 3 3 3 3 2 4 4 2 3 6 5
7 7 6 6 5 5 5 6 5 4 4 3 3 1 1 2 2 3 3 3 3 4
7 6 6 6 5 5 6 4 5 4 3 3 1 1 1 2 3 5 2 2 2 3
6 6 6 6 5 5 5 4 4 4 3 2 1 2 2 4 5 6 6 3 3 4
6 6 5 5 5 5 5 5 4 4 3 3 3 3 3 2 3 4 4 4 3 4
5 6 6 5 5 5 4 4 5 6 4 4 4 3 3 4 4 5 5 4 4 4
6 5 5 5 4 4 4 5 6 5 5 4 3 6 4 6 4 4 4 4 4 5
6 6 5 5 4 4 5 6 6 5 5 4 3 3 7 8 3 4 5 5 5 5
7 6 5 5 4 4 3 6 5 4 4 4 3 3 8 8 5 5 6 6 7 8
7 7 6 5 5 3 5 4 3 3 5 5 4 3 7 7 6 6 7 7 8 9
7 7 7 6 6 3 3 4 4 4 4 5 5 3 6 6 5 6 6 8 9 10
6 6 6 5 3 4 4 5 4 5 4 5 4 4 5 8 5 5 6 6 6 4
Wind_Direction
118 124 121 132 136 127 132 145 154 150 165 179 186 198 195 207 207 202 195 198 195 195
118 124 125 114 113 128 131 136 137 150 150 176 189 196 199 208 220 214 191 203 200 201
113 108 113 120 128 138 128 122 131 134 162 165 175 203 189 218 229 214 196 202 206 201
114 113 115 119 129 138 130 134 140 156 158 167 168 133 189 232 231 190 179 204 208 186
115 116 116 122 135 139 130 135 150 143 155 151 158 27 255 231 189 145 230 265 182 152
124 124 129 137 141 141 137 149 140 141 149 147 77 336 296 230 193 179 165 191 205 185
137 134 133 136 143 145 151 153 139 149 125 94 60 17 341 274 195 161 140 154 173 169
141 129 127 132 153 159 158 171 136 118 97 71 43 20 354 85 95 123 140 154 160 142
143 134 142 147 154 164 146 135 126 107 100 72 43 343 125 101 93 108 112 109 96 128
138 141 149 145 135 138 133 121 110 111 108 83 56 41 102 93 71 82 86 95 99 94
149 147 148 135 131 115 126 119 128 128 112 95 52 103 109 96 78 85 82 84 98 106
151 146 147 143 136 131 117 116 133 132 118 97 85 111 112 98 84 84 82 81 87 95
155 156 159 153 152 143 120 132 124 112 100 107 114 143 123 106 103 94 88 87 96 88
152 157 153 143 135 143 136 129 118 106 98 100 116 143 147 122 111 111 104 105 105 104